Home > Time Zones > World Clock > Weather > Italy > Genoa > Past weeks

Flag Weather past 2 weeks in Genoa, Italy

Now
61 °F

Clear.


Feels Like: 61 °F
Forecast: 55 / 70 °F
Wind: 7 mph from Northeast

Location: Genova / Sestri

Current Time: Oct 31, 2014 at 10:27:36 AM

Latest Report: Oct 31, 2014 at 9:50 AM


Visibility: 5 mi

Pressure: 30.30 "Hg

Humidity: 55%

Dew point: 45 °F

Location of GenoaLocation

Historic Weather in Genoa — Graph

°F

Genoa temperature yesterday

Maximum temperature yesterday: 66 °F (at 12:50 PM)
Minimum temperature yesterday: 54 °F (at 3:50 AM)
Average temperature yesterday: 59 °F

Past Weeks' High & Low Weather Summary

 TemperatureHumidityPressure
High75 °F (Oct 17, 12:50 PM)94% (Oct 18, 3:20 AM)30.27 "Hg (Oct 18, 3:20 AM)
Low52 °F (Oct 23, 3:50 AM)16% (Oct 23, 2:20 PM)29.65 "Hg (Oct 21, 11:50 PM)
Average64 °F63%30.07 "Hg
* Reported Oct 16 10:20 AM — Oct 31 9:20 AM, Genoa, Weather by CustomWeather, © 2014

Note: Actual official high and low records may vary slightly from our data, if they occured in-between our weather recording intervals... More about our weather records

Advertising

Genoa weather history for previous 24 hours

 ConditionsComfort  
Time TempWeatherWind HumidityBarometerVisibility
9:20 AM
Oct 31
59 °FClear.7 mph59%30.27 "Hg5 mi
8:50 AM57 °FClear.9 mph63%30.27 "Hg5 mi
8:20 AM57 °FClear.8 mph63%30.27 "Hg5 mi
7:50 AM55 °FClear.8 mph67%30.27 "Hg5 mi
7:20 AM55 °FSunny.8 mph63%30.27 "Hg10 mi
6:50 AM55 °FPassing clouds.6 mph67%30.27 "HgN/A
6:20 AM55 °FClear.10 mph63%30.24 "Hg4 mi
5:50 AM55 °FClear.8 mph67%30.27 "Hg5 mi
5:20 AM55 °FClear.9 mph63%30.27 "Hg5 mi
4:50 AM55 °FClear.12 mph63%30.27 "Hg5 mi
4:20 AM55 °FClear.10 mph63%30.27 "Hg5 mi
3:50 AM55 °FPassing clouds.10 mph67%30.27 "HgN/A
3:20 AM57 °FPassing clouds.12 mph59%30.27 "HgN/A
2:50 AM57 °FPassing clouds.12 mph59%30.27 "HgN/A
2:20 AM57 °FPassing clouds.9 mph59%30.27 "HgN/A
1:20 AM57 °FPassing clouds.8 mph59%30.27 "HgN/A
12:50 AM57 °FClear.8 mph63%30.27 "Hg10 mi
12:20 AM57 °FClear.8 mph59%30.27 "Hg10 mi
11:50 PM
Oct 30
57 °FPassing clouds.7 mph59%30.27 "HgN/A
11:20 PM57 °FClear.7 mph63%30.24 "Hg10 mi
10:50 PM57 °FPassing clouds.8 mph63%30.24 "HgN/A
10:20 PM59 °FClear.9 mph59%30.24 "Hg10 mi
9:50 PM57 °FPassing clouds.9 mph63%30.24 "HgN/A
9:20 PM59 °FPassing clouds.7 mph59%30.24 "HgN/A
8:50 PM57 °FPassing clouds.8 mph63%30.24 "HgN/A
8:20 PM57 °FPassing clouds.9 mph63%30.24 "HgN/A
7:50 PM59 °FClear.8 mph63%30.24 "Hg10 mi
7:20 PM59 °FClear.8 mph63%30.21 "Hg10 mi
6:50 PM59 °FPassing clouds.6 mph63%30.21 "HgN/A
6:20 PM61 °FClear.8 mph59%30.21 "Hg10 mi
5:50 PM61 °FPassing clouds.6 mph59%30.21 "HgN/A
5:20 PM63 °FClear.7 mph56%30.21 "Hg10 mi
4:50 PM63 °FSunny.1 mph56%30.18 "Hg10 mi
4:20 PM64 °FPassing clouds.6 mph49%30.18 "HgN/A
3:50 PM66 °FPassing clouds.5 mph49%30.18 "HgN/A
3:20 PM64 °FSunny.9 mph56%30.18 "Hg10 mi
2:50 PM66 °FSunny.8 mph56%30.18 "Hg10 mi
2:20 PM66 °FSunny.7 mph52%30.18 "Hg10 mi
1:50 PM66 °FSunny.6 mph52%30.18 "Hg10 mi
1:20 PM66 °FSunny.2 mph46%30.21 "Hg10 mi
12:50 PM66 °FPassing clouds.3 mph49%30.21 "HgN/A
12:20 PM64 °FPassing clouds.5 mph49%30.21 "HgN/A
11:50 AM64 °FPassing clouds.3 mph52%30.21 "HgN/A
11:20 AM63 °FSunny.2 mph56%30.21 "Hg10 mi
10:50 AM63 °FPassing clouds.7 mph52%30.21 "HgN/A
10:20 AM61 °FPassing clouds.6 mph55%30.21 "HgN/A
Weather by CustomWeather, © 2014

See weather overviewHow to use our weather pages